This demonstration page uses our WeatherBlox Daily Observations layout. Learn more.

Left ArrowRight Arrow

Hourly Observations for May 5, 2019

Temp ( °F °C ) Dew Point ( °F °C ) Humidity (%) Winds ( mph kmh ) Pressure ( in mb ) Visibility ( mi km ) Precip ( " mm )
12:15 am 00:15 Clear 56 13.5 47 8.1 70 70 S 13 20 29.80 1009 10 16 N/A
12:35 am 00:35 Clear 56 13.1 47 8.2 72 72 S 10 17 29.81 1009 10 16 N/A
12:55 am 00:55 Clear 55 13 47 8.1 72 72 S 10 17 29.81 1009 10 16 N/A
1:15 am 01:15 Clear 54 12.2 46 8 76 76 S 10 17 29.82 1010 10 16 N/A
1:35 am 01:35 Clear 54 12.1 49 9.2 83 83 S 12 19 29.82 1010 10 16 N/A
1:55 am 01:55 Clear 53 11.9 51 10.8 93 93 S 10 17 29.82 1010 10 16 N/A
2:15 am 02:15 Clear 54 12 52 11.2 95 95 S 12 19 29.82 1010 10 16 N/A
2:35 am 02:35 Clear 53 11.8 52 11.2 96 96 S 10 17 29.81 1009 10 16 N/A
2:55 am 02:55 Clear 53 11.6 52 11.1 97 97 S 9 15 29.81 1009 10 16 N/A
3:15 am 03:15 Clear 52 11.2 52 11 99 99 S 12 19 29.81 1010 10 16 N/A
3:35 am 03:35 Clear 53 11.5 52 11.1 97 97 S 10 17 29.80 1009 10 16 N/A
3:55 am 03:55 Clear 52 11.3 52 11 98 98 S 12 19 29.80 1009 10 16 N/A
4:15 am 04:15 Clear 52 11.2 52 11 99 99 S 10 17 29.80 1009 10 16 N/A
4:35 am 04:35 Clear 52 11.1 52 10.9 99 99 S 9 15 29.79 1009 10 16 N/A
4:55 am 04:55 Clear 51 10.7 51 10.6 99 99 S 12 19 29.80 1009 10 16 N/A
5:15 am 05:15 Clear 51 10.7 51 10.7 100 100 S 12 19 29.80 1009 10 16 N/A
5:35 am 05:35 Clear 51 10.6 51 10.6 100 100 S 10 17 29.79 1009 10 16 N/A
5:55 am 05:55 Clear 51 10.3 51 10.3 100 100 S 8 13 29.79 1009 10 16 N/A
6:15 am 06:15 Clear 50 10 50 10 100 100 S 8 13 29.79 1009 10 16 N/A
6:35 am 06:35 Sunny 50 10 50 10 100 100 S 9 15 29.79 1009 7 11 N/A
6:55 am 06:55 Sunny 50 10 50 10 100 100 S 8 13 29.79 1009 7 11 N/A
7:15 am 07:15 Sunny 50 10 50 10 100 100 SSE 5 7 29.81 1010 7 11 N/A
7:35 am 07:35 Partly Cloudy 51 10.5 51 10.5 100 100 S 3 6 29.81 1009 7 11 N/A
7:55 am 07:55 Partly Cloudy 53 11.5 53 11.5 100 100 S 6 9 29.81 1009 10 16 N/A
8:15 am 08:15 Sunny 54 12.4 54 12.1 98 98 SSW 7 11 29.80 1009 10 16 N/A
8:35 am 08:35 Sunny 56 13.1 54 12.3 95 95 S 10 17 29.80 1009 10 16 N/A
8:55 am 08:55 Sunny 57 13.7 55 12.6 93 93 S 9 15 29.78 1008 10 16 N/A
9:15 am 09:15 Sunny 58 14.6 55 12.9 90 90 S 9 15 29.77 1008 10 16 N/A
9:35 am 09:35 Sunny 60 15.5 56 13.4 87 87 S 12 19 29.76 1008 10 16 N/A
9:55 am 09:55 Sunny 60 15.8 56 13.4 86 86 S 13 20 29.74 1007 10 16 N/A
10:15 am 10:15 Sunny 62 16.7 56 13.5 82 82 S 10 17 29.75 1007 10 16 N/A
10:35 am 10:35 Sunny 63 17.3 56 13.3 78 78 S 13 20 29.73 1007 10 16 N/A
10:55 am 10:55 Partly Cloudy 64 17.7 56 13.5 77 77 S 10 17 29.73 1007 10 16 N/A
11:15 am 11:15 Sunny 65 18.4 56 13.3 72 72 S 12 19 29.72 1006 10 16 N/A
11:35 am 11:35 Sunny 66 18.8 56 13.5 71 71 SSW 13 20 29.72 1006 10 16 N/A
11:55 am 11:55 Sunny 67 19.4 57 14 71 71 S 14 22 29.70 1006 10 16 N/A
12:15 pm 12:15 Sunny 67 19.7 56 13.6 68 68 SSW 12 19 29.70 1006 10 16 N/A
12:35 pm 12:35 Sunny 68 20.2 57 13.7 66 66 SSW 14 22 29.69 1005 10 16 N/A
12:55 pm 12:55 Sunny 69 20.6 57 13.9 66 66 S 12 19 29.68 1005 10 16 N/A
1:15 pm 13:15 Sunny 70 21.3 58 14.3 64 64 S 12 19 29.68 1005 10 16 N/A
1:35 pm 13:35 Sunny 71 21.9 57 14.1 61 61 S 10 17 29.67 1005 10 16 N/A
1:55 pm 13:55 Sunny 72 22.2 57 14 60 60 SW 8 13 29.67 1005 10 16 N/A
2:15 pm 14:15 Sunny 73 22.7 58 14.3 59 59 S 8 13 29.66 1004 10 16 N/A
2:35 pm 14:35 Partly Cloudy 73 22.8 57 13.9 57 57 SSW 9 15 29.66 1004 10 16 N/A
2:55 pm 14:55 Sunny 74 23.6 56 13.6 54 54 SSW 10 17 29.64 1004 10 16 N/A
3:15 pm 15:15 Sunny 74 23.6 57 14 55 55 SSW 8 13 29.63 1003 10 16 N/A
3:35 pm 15:35 Partly Cloudy 76 24.4 57 13.8 52 52 SW 8 13 29.62 1003 10 16 N/A
3:55 pm 15:55 Partly Cloudy 75 24 55 13 50 50 S 3 6 29.62 1003 10 16 N/A
4:15 pm 16:15 Partly Cloudy 77 25 55 12.6 46 46 WSW 12 19 29.60 1002 10 16 N/A
4:35 pm 16:35 Partly Cloudy 77 25 54 12.3 45 45 SSW 6 9 29.59 1002 10 16 N/A
4:55 pm 16:55 Partly Cloudy 77 25 53 11.8 44 44 SW 3 6 29.58 1002 10 16 N/A
5:15 pm 17:15 Partly Cloudy 78 25.5 53 11.9 43 43 W 10 17 29.57 1001 10 16 N/A
5:35 pm 17:35 Partly Cloudy 77 25 54 12.1 45 45 SW 7 11 29.58 1002 10 16 N/A
5:55 pm 17:55 Partly Cloudy with Nearby Thunderstorms 76 24.3 54 12.3 47 47 N N/A 29.58 1002 10 16 N/A
6:15 pm 18:15 Mostly Cloudy 77 24.9 53 11.4 43 43 WNW 9 15 29.57 1001 10 16 N/A
6:35 pm 18:35 Mostly Cloudy 77 25 55 12.9 47 47 NNW 14 22 29.59 1002 10 16 N/A
6:55 pm 18:55 Mostly Cloudy 68 19.8 46 7.9 46 46 WSW 7 11 29.68 1005 10 16 N/A
7:15 pm 19:15 Cloudy 69 20.4 47 8.3 46 46 WSW 12 19 29.67 1005 10 16 N/A
7:35 pm 19:35 Mostly Cloudy 71 21.4 45 7.1 40 40 WSW 7 11 29.68 1005 10 16 N/A
7:55 pm 19:55 Partly Cloudy 69 20.5 55 12.9 62 62 NNE 13 20 29.67 1005 10 16 N/A
8:15 pm 20:15 Sunny 66 19 55 12.5 66 66 NNE 16 26 29.69 1005 10 16 N/A
8:35 pm 20:35 Sunny 64 18 54 12.3 69 69 NNE 18 30 29.70 1006 10 16 N/A
8:55 pm 20:55 Clear 63 17.1 54 12.2 73 73 NE 14 22 29.71 1006 10 16 N/A
9:15 pm 21:15 Clear 62 16.7 54 12.2 75 75 NE 12 19 29.73 1007 10 16 N/A
9:35 pm 21:35 Clear 62 16.5 54 12.1 75 75 NE 12 19 29.75 1007 10 16 N/A
9:55 pm 21:55 Clear 60 15.8 53 11.8 77 77 NNE 10 17 29.76 1008 10 16 N/A
10:15 pm 22:15 Clear 59 15.2 54 12 81 81 NNE 12 19 29.77 1008 10 16 N/A
10:35 pm 22:35 Clear 59 15.1 54 12.3 83 83 NNE 9 15 29.78 1008 10 16 N/A
10:55 pm 22:55 Clear 58 14.3 53 11.8 85 85 N 8 13 29.79 1009 10 16 N/A
11:15 pm 23:15 Clear 56 13.2 53 11.6 90 90 NE 9 15 29.80 1009 10 16 N/A
11:35 pm 23:35 Clear 55 12.7 52 11.3 91 91 NE 8 13 29.84 1010 10 16 N/A
11:55 pm 23:55 Mostly Cloudy 55 13 53 11.5 91 91 ENE 8 13 29.85 1011 10 16 N/A

Powered by AerisWeather